^^
Datos históricos de la estación: Murcia-Puente Tocinos
Diario Informe para Febrero 14, 2019 Unidades:  Inglés    Métrico   Ambas
Diario Semanal Mensual Anual Configurable
  Máximo: Mínimo: Media:
Temperatura: 59.7 °F 51.4 °F 54.3 °F
Punto de rocio: 46.9 °F 42.4 °F 44.2 °F
Humedad: 79% 56% 69%
Velocidad viento: 10.2mph 0mph 4.2mph
Racha viento: 19.6mph - -
Viento- - ESE
Presión: 30.5 in 30.4 in -
Precipitación: 0 in    
Historical Graphs
 
 
Tabla de datos para Febrero 14, 2019
Hora Temperatura Punto de rocio Presión Viento Velocidad viento Racha viento Humedad Intensidad lluvia(por hora) Nubes
00:00 51.6 °F 43.3 °F 30.5 in SSE 3 mph 5 mph 73% 0 in CLR
00:05 51.8 °F 43.2 °F 30.5 in South 3.1 mph 4.6 mph 72% 0 in CLR
00:10 51.8 °F 43.2 °F 30.5 in South 2.9 mph 2.9 mph 72% 0 in CLR
00:15 52 °F 43.2 °F 30.5 in South 2.9 mph 4.6 mph 72% 0 in CLR
00:20 52 °F 43.2 °F 30.5 in SSE 2.9 mph 3.5 mph 72% 0 in CLR
00:25 51.8 °F 43.2 °F 30.5 in SSE 2.9 mph 4.6 mph 72% 0 in CLR
00:30 52 °F 43.2 °F 30.5 in SSE 2.4 mph 4.6 mph 72% 0 in CLR
00:35 51.8 °F 43.2 °F 30.5 in South 2.4 mph 4.6 mph 72% 0 in CLR
00:40 51.8 °F 43.2 °F 30.5 in South 3.6 mph 4.6 mph 72% 0 in CLR
00:45 52 °F 43.2 °F 30.5 in South 3.6 mph 3.5 mph 72% 0 in CLR
00:50 52 °F 43.2 °F 30.5 in South 2.4 mph 3.5 mph 72% 0 in CLR
00:55 52 °F 43.2 °F 30.5 in SSE 2.4 mph 4.6 mph 72% 0 in CLR
01:00 52 °F 43.2 °F 30.5 in South 2 mph 5 mph 72% 0 in CLR
01:05 51.8 °F 43.2 °F 30.5 in SW 2.9 mph 4.6 mph 72% 0 in CLR
01:10 51.8 °F 43.2 °F 30.5 in SW 2.9 mph 3.6 mph 72% 0 in CLR
01:15 52 °F 43 °F 30.5 in SSE 2.9 mph 4.6 mph 71% 0 in CLR
01:20 51.8 °F 42.6 °F 30.5 in South 2.9 mph 4.7 mph 71% 0 in CLR
01:25 51.8 °F 42.6 °F 30.5 in SSW 2.9 mph 4.6 mph 71% 0 in CLR
01:30 51.8 °F 42.6 °F 30.5 in SSW 3.6 mph 3.5 mph 71% 0 in CLR
01:35 52 °F 43 °F 30.5 in SSW 3.6 mph 4.6 mph 71% 0 in CLR
01:40 52 °F 43 °F 30.5 in SSW 3.1 mph 5.8 mph 71% 0 in CLR
01:45 52 °F 43 °F 30.5 in South 3.1 mph 4.6 mph 71% 0 in CLR
01:50 52.2 °F 43 °F 30.5 in SSW 3.1 mph 4.6 mph 71% 0 in CLR
01:55 52 °F 43 °F 30.5 in SSW 3.1 mph 4.6 mph 71% 0 in CLR
02:00 52.2 °F 43 °F 30.5 in South 3 mph 6 mph 71% 0 in CLR
02:05 52 °F 42.4 °F 30.5 in SSE 3.1 mph 5.8 mph 70% 0 in CLR
02:10 51.8 °F 42.6 °F 30.5 in SSW 4 mph 4.6 mph 71% 0 in CLR
02:15 51.6 °F 42.4 °F 30.5 in SSW 4 mph 4.6 mph 71% 0 in CLR
02:20 51.6 °F 42.4 °F 30.5 in SSW 4.3 mph 5.8 mph 71% 0 in CLR
02:25 51.6 °F 42.4 °F 30.5 in SSW 4.3 mph 4.7 mph 71% 0 in CLR
02:30 51.6 °F 42.4 °F 30.5 in South 3.6 mph 4.6 mph 71% 0 in CLR
02:35 51.6 °F 42.4 °F 30.5 in SSW 3.6 mph 4.6 mph 71% 0 in CLR
02:40 51.6 °F 42.4 °F 30.5 in SSE 3.6 mph 4.6 mph 71% 0 in CLR
02:45 51.6 °F 42.4 °F 30.5 in SSW 3.6 mph 4.6 mph 71% 0 in CLR
02:50 51.8 °F 42.6 °F 30.5 in SSW 3.1 mph 3.5 mph 71% 0 in CLR
02:55 51.8 °F 42.6 °F 30.5 in South 3.1 mph 4.6 mph 71% 0 in CLR
03:00 52 °F 42.8 °F 30.5 in South 2 mph 5 mph 71% 0 in CLR
03:05 52 °F 43 °F 30.5 in SSE 2.4 mph 4.6 mph 71% 0 in CLR
03:10 52 °F 43 °F 30.5 in South 3.6 mph 4.6 mph 71% 0 in CLR
03:15 52 °F 43 °F 30.5 in South 3.6 mph 5.2 mph 71% 0 in CLR
03:20 52 °F 43 °F 30.5 in SSW 2.9 mph 2.3 mph 71% 0 in CLR
03:25 52 °F 43 °F 30.5 in South 2.9 mph 2.4 mph 71% 0 in CLR
03:30 52 °F 43 °F 30.5 in South 2.4 mph 3.6 mph 71% 0 in CLR
03:35 52 °F 43 °F 30.5 in South 2.4 mph 3.5 mph 71% 0 in CLR
03:40 52.2 °F 43 °F 30.5 in South 2.4 mph 4.6 mph 71% 0 in CLR
03:45 52.2 °F 43 °F 30.5 in South 2.4 mph 3.5 mph 71% 0 in CLR
03:50 52.2 °F 43 °F 30.5 in South 2.4 mph 3.5 mph 71% 0 in CLR
03:55 52.2 °F 43 °F 30.5 in South 2.4 mph 2.3 mph 71% 0 in CLR
04:00 52.3 °F 42.8 °F 30.5 in South 2 mph 2 mph 70% 0 in CLR
04:05 52.3 °F 42.8 °F 30.4 in South 1.8 mph   70% 0 in CLR
04:10 52.3 °F 42.8 °F 30.4 in Calm   2.3 mph 70% 0 in CLR
04:15 52.3 °F 42.8 °F 30.4 in Calm   3.5 mph 70% 0 in CLR
04:20 52.3 °F 42.8 °F 30.4 in South 2 mph 3.5 mph 70% 0 in CLR
04:25 52.2 °F 42.6 °F 30.4 in South 2 mph 3.5 mph 70% 0 in CLR
04:30 52.2 °F 43 °F 30.4 in South 2.9 mph 3.5 mph 71% 0 in CLR
04:35 52.2 °F 43 °F 30.4 in SSW 2.9 mph 5.8 mph 71% 0 in CLR
04:40 52.2 °F 43 °F 30.4 in SSW 2.9 mph 3.5 mph 71% 0 in CLR
04:45 52 °F 43 °F 30.4 in SSW 2.9 mph 4.6 mph 71% 0 in CLR
04:50 52 °F 43 °F 30.4 in SSW 2 mph 4.6 mph 71% 0 in CLR
04:55 52 °F 43.2 °F 30.4 in SSW 2 mph 4.6 mph 72% 0 in CLR
05:00 52 °F 43.2 °F 30.4 in SSW 3 mph 5 mph 72% 0 in CLR
05:05 51.8 °F 43.2 °F 30.5 in South 3.6 mph 5.8 mph 72% 0 in CLR
05:10 51.6 °F 43 °F 30.5 in SSW 3.6 mph 5.8 mph 72% 0 in CLR
05:15 51.6 °F 43 °F 30.5 in South 3.6 mph 5.8 mph 72% 0 in CLR
05:20 51.6 °F 43 °F 30.5 in SSW 4 mph 4.6 mph 72% 0 in CLR
05:25 51.6 °F 43.2 °F 30.5 in SSW 4 mph 4.6 mph 73% 0 in CLR
05:30 51.6 °F 43.2 °F 30.5 in SSW 2.9 mph 3.5 mph 73% 0 in CLR
05:35 51.6 °F 43.2 °F 30.5 in SSW 2.9 mph 2.4 mph 73% 0 in CLR
05:40 51.6 °F 43.2 °F 30.5 in SSW 2 mph 3.5 mph 73% 0 in CLR
05:45 51.8 °F 43.2 °F 30.5 in SSW 2 mph 2.3 mph 72% 0 in CLR
05:50 51.8 °F 43.2 °F 30.5 in SSW 2 mph 2.3 mph 72% 0 in CLR
05:55 52 °F 43.5 °F 30.5 in SSW 2 mph   73% 0 in CLR
06:00 51.8 °F 43.3 °F 30.5 in Calm     73% 0 in CLR
06:05 51.8 °F 43.3 °F 30.5 in Calm   2 mph 73% 0 in CLR
06:10 51.8 °F 43.3 °F 30.5 in Calm   2.3 mph 73% 0 in CLR
06:15 52 °F 43.5 °F 30.5 in Calm   1.2 mph 73% 0 in CLR
06:20 52 °F 43.2 °F 30.5 in Calm   3.5 mph 72% 0 in CLR
06:25 51.8 °F 43.2 °F 30.5 in Calm     72% 0 in CLR
06:30 52 °F 43.2 °F 30.5 in SSW 1.4 mph   72% 0 in CLR
06:35 52 °F 43.2 °F 30.5 in SSW 1.4 mph   72% 0 in CLR
06:40 52 °F 43.2 °F 30.5 in Calm   4.6 mph 72% 0 in CLR
06:45 52 °F 43.2 °F 30.5 in Calm   2.4 mph 72% 0 in CLR
06:50 51.8 °F 43.2 °F 30.5 in SSW 1.8 mph   72% 0 in CLR
06:55 51.8 °F 43.2 °F 30.5 in SSW 1.8 mph 5.2 mph 72% 0 in CLR
07:00 51.6 °F 43 °F 30.5 in SSW 2 mph 5 mph 72% 0 in CLR
07:05 51.6 °F 43 °F 30.5 in SSW 1.8 mph 2.3 mph 72% 0 in CLR
07:10 51.6 °F 43 °F 30.5 in SSW 1.8 mph 3.5 mph 72% 0 in CLR
07:15 51.6 °F 43 °F 30.5 in SSW 1.8 mph 4.6 mph 72% 0 in CLR
07:20 51.4 °F 42.6 °F 30.5 in SSW 2.9 mph 4.6 mph 72% 0 in CLR
07:25 51.4 °F 42.6 °F 30.5 in SSW 2.9 mph 5.8 mph 72% 0 in CLR
07:30 51.4 °F 42.6 °F 30.5 in SSW 2.9 mph 3.6 mph 72% 0 in CLR
07:35 51.4 °F 42.6 °F 30.5 in SSW 2.9 mph 4.6 mph 72% 0 in CLR
07:40 51.4 °F 42.6 °F 30.5 in SSW 2.9 mph 4.6 mph 72% 0 in CLR
07:45 51.4 °F 42.6 °F 30.5 in SSW 2.9 mph 4.6 mph 72% 0 in CLR
07:50 51.4 °F 42.6 °F 30.5 in SSW 2.4 mph 2.9 mph 72% 0 in CLR
07:55 51.4 °F 42.6 °F 30.5 in SSW 2.4 mph 2.3 mph 72% 0 in CLR
08:00 51.4 °F 42.6 °F 30.5 in SSW 2 mph 4 mph 72% 0 in CLR
08:05 51.4 °F 42.6 °F 30.5 in SSW 2.4 mph 4.6 mph 72% 0 in CLR
08:10 51.4 °F 43.2 °F 30.5 in SSW 2.4 mph 2.3 mph 73% 0 in CLR
08:15 51.4 °F 42.6 °F 30.5 in SSW 2.4 mph 4.6 mph 72% 0 in CLR
08:20 51.4 °F 42.6 °F 30.5 in SSW 2.4 mph 4.6 mph 72% 0 in CLR
08:25 51.4 °F 42.6 °F 30.5 in SSW 2.4 mph 4.6 mph 72% 0 in CLR
08:30 51.6 °F 43 °F 30.5 in South 3.1 mph 3.5 mph 72% 0 in CLR
08:35 51.6 °F 43 °F 30.5 in South 3.1 mph 5.8 mph 72% 0 in CLR
08:40 51.6 °F 43 °F 30.5 in SSW 3.1 mph 5.8 mph 72% 0 in CLR
08:45 51.6 °F 43 °F 30.5 in SSW 3.1 mph 5.8 mph 72% 0 in CLR
08:50 51.8 °F 43.2 °F 30.5 in SSW 4 mph 4.6 mph 72% 0 in CLR
08:55 52 °F 43.2 °F 30.5 in SSW 4 mph 4.6 mph 72% 0 in CLR
09:00 52 °F 43.2 °F 30.5 in SSW 3 mph 6 mph 72% 0 in CLR
09:05 52.2 °F 43 °F 30.5 in SSW 3.1 mph 4.7 mph 71% 0 in CLR
09:10 52.2 °F 43.3 °F 30.5 in SSW 3.1 mph 3.5 mph 72% 0 in CLR
09:15 52.2 °F 43.3 °F 30.5 in SSW 3.1 mph   72% 0 in CLR
09:20 52.3 °F 43.2 °F 30.5 in SSW 1.8 mph 4 mph 71% 0 in CLR
09:25 52.5 °F 43.3 °F 30.5 in SSW 1.8 mph 4.6 mph 71% 0 in CLR
09:30 52.5 °F 43.3 °F 30.5 in SSW 2.4 mph 3.5 mph 71% 0 in CLR
09:35 52.9 °F 43.3 °F 30.5 in SSW 2.4 mph 2.3 mph 70% 0 in CLR
09:40 53.1 °F 43.5 °F 30.5 in SSW 2 mph 4.6 mph 70% 0 in CLR
09:45 53.2 °F 43.3 °F 30.5 in SSW 2 mph 3.5 mph 69% 0 in CLR
09:50 53.2 °F 43.3 °F 30.5 in SSW 2 mph 4.6 mph 69% 0 in CLR
09:55 53.4 °F 43.2 °F 30.5 in SSW 2 mph 4.6 mph 68% 0 in CLR
10:00 53.8 °F 43.5 °F 30.5 in SSW 2 mph 4 mph 68% 0 in CLR
10:05 54.1 °F 43.3 °F 30.5 in SSW 2 mph 2.9 mph 67% 0 in CLR
10:10 54.3 °F 43.2 °F 30.5 in Calm   3.5 mph 66% 0 in CLR
10:15 54.5 °F 43.3 °F 30.5 in Calm   4 mph 66% 0 in CLR
10:20 54.9 °F 43.7 °F 30.5 in NW 2 mph 4.6 mph 66% 0 in CLR
10:25 55 °F 43.2 °F 30.5 in NW 2 mph 2.3 mph 64% 0 in CLR
10:30 55.2 °F 43.7 °F 30.5 in NW 1.8 mph 2.3 mph 65% 0 in CLR
10:35 55.6 °F 43.5 °F 30.5 in NW 1.8 mph 2.3 mph 64% 0 in CLR
10:40 55.8 °F 43.3 °F 30.5 in North 1.4 mph 4.6 mph 63% 0 in CLR
10:45 55.8 °F 43.3 °F 30.5 in East 1.4 mph 5.8 mph 63% 0 in CLR
10:50 55.8 °F 43.9 °F 30.5 in NE 2.9 mph 4.6 mph 64% 0 in CLR
10:55 55.9 °F 43.9 °F 30.5 in NE 2.9 mph 3.5 mph 64% 0 in CLR
11:00 56.1 °F 43.7 °F 30.5 in NE 2 mph 5 mph 63% 0 in CLR
11:05 56.1 °F 44.1 °F 30.5 in NE 2.4 mph 3.1 mph 64% 0 in CLR
11:10 55.9 °F 43.9 °F 30.5 in NE 3.1 mph 8.1 mph 64% 0 in CLR
11:15 55.9 °F 43.9 °F 30.5 in NE 3.1 mph 9.2 mph 64% 0 in CLR
11:20 56.5 °F 43.2 °F 30.5 in NE 5.9 mph 8.1 mph 61% 0 in CLR
11:25 56.5 °F 43.2 °F 30.5 in NE 5.9 mph 10.4 mph 61% 0 in CLR
11:30 56.5 °F 43.2 °F 30.5 in NNE 6.9 mph 11.5 mph 61% 0 in CLR
11:35 56.5 °F 43.2 °F 30.5 in NE 6.9 mph 12.7 mph 61% 0 in CLR
11:40 56.1 °F 42.8 °F 30.5 in ENE 8.7 mph 15 mph 61% 0 in CLR
11:45 56.3 °F 43.3 °F 30.5 in NE 8.7 mph 8.1 mph 62% 0 in CLR
11:50 56.7 °F 43.3 °F 30.5 in NE 8.1 mph 10.4 mph 61% 0 in CLR
11:55 56.7 °F 43.3 °F 30.5 in NNE 8.1 mph 11.5 mph 61% 0 in CLR
12:00 56.8 °F 43.5 °F 30.5 in NNE 8 mph 13 mph 61% 0 in CLR
12:05 56.7 °F 43.9 °F 30.5 in NE 7.6 mph 11.8 mph 62% 0 in CLR
12:10 56.5 °F 43.5 °F 30.5 in NNE 10.2 mph 15 mph 62% 0 in CLR
12:15 56.5 °F 43.5 °F 30.5 in East 10.2 mph 12.7 mph 62% 0 in CLR
12:20 56.5 °F 43.5 °F 30.5 in ENE 9.2 mph 12.7 mph 62% 0 in CLR
12:25 56.7 °F 43.3 °F 30.5 in NE 9.2 mph 11.5 mph 61% 0 in CLR
12:30 56.8 °F 43.5 °F 30.5 in NE 7.6 mph 13.8 mph 61% 0 in CLR
12:35 57.6 °F 43.9 °F 30.5 in NE 7.6 mph 13.8 mph 60% 0 in CLR
12:40 57.6 °F 43.9 °F 30.5 in NE 7.4 mph 13.8 mph 60% 0 in CLR
12:45 57 °F 43.3 °F 30.5 in NE 7.4 mph 12.7 mph 60% 0 in CLR
12:50 56.8 °F 43.5 °F 30.5 in North 9.2 mph 9.2 mph 61% 0 in CLR
12:55 57.6 °F 43.9 °F 30.5 in NE 9.2 mph 9.2 mph 60% 0 in CLR
13:00 57.6 °F 43.3 °F 30.5 in NE 7 mph 13 mph 59% 0 in CLR
13:05 58.1 °F 43.3 °F 30.5 in NE 6.9 mph 12.7 mph 58% 0 in CLR
13:10 58.1 °F 43.3 °F 30.5 in ESE 7.4 mph 7.6 mph 58% 0 in CLR
13:15 58.3 °F 43.2 °F 30.5 in NE 7.4 mph 15 mph 57% 0 in CLR
13:20 58.3 °F 42.6 °F 30.5 in NE 8.5 mph 10.4 mph 56% 0 in CLR
13:25 58.6 °F 43 °F 30.5 in NE 8.5 mph 15.6 mph 56% 0 in CLR
13:30 58.5 °F 43.3 °F 30.5 in East 8.5 mph 15 mph 57% 0 in CLR
13:35 58.3 °F 43.2 °F 30.5 in NNE 8.5 mph 10.4 mph 57% 0 in CLR
13:40 58.1 °F 43 °F 30.5 in NNE 8.7 mph 13.8 mph 57% 0 in CLR
13:45 58.3 °F 43.5 °F 30.5 in NE 8.7 mph 16.1 mph 58% 0 in CLR
13:50 58.3 °F 43.2 °F 30.5 in NE 9.7 mph 15 mph 57% 0 in CLR
13:55 58.1 °F 43 °F 30.5 in North 9.7 mph 11.5 mph 57% 0 in CLR
14:00 58.1 °F 43.3 °F 30.5 in NE 9 mph 15 mph 58% 0 in CLR
14:05 58.5 °F 43.3 °F 30.5 in ENE 9.2 mph 16.1 mph 57% 0 in CLR
14:10 58.6 °F 43.3 °F 30.5 in NE 8.1 mph 14 mph 57% 0 in CLR
14:15 58.3 °F 43.5 °F 30.5 in NE 8.1 mph 13.8 mph 58% 0 in CLR
14:20 58.1 °F 43.3 °F 30.4 in NNE 9.2 mph 12.7 mph 58% 0 in CLR
14:25 58.5 °F 43.7 °F 30.4 in ENE 9.2 mph 9.2 mph 58% 0 in CLR
14:30 58.6 °F 43.9 °F 30.4 in NE 8.5 mph 10.4 mph 58% 0 in CLR
14:35 58.5 °F 43.7 °F 30.4 in NNE 8.5 mph 13.8 mph 58% 0 in CLR
14:40 58.5 °F 44.2 °F 30.4 in NE 8.5 mph 11.5 mph 59% 0 in CLR
14:45 58.5 °F 44.2 °F 30.4 in NNE 8.5 mph 10.4 mph 59% 0 in CLR
14:50 58.5 °F 44.2 °F 30.4 in NNE 7.6 mph 12.7 mph 59% 0 in CLR
14:55 58.1 °F 43.9 °F 30.4 in NE 7.6 mph 12.7 mph 59% 0 in CLR
15:00 58.3 °F 44.4 °F 30.4 in NE 9 mph 14 mph 60% 0 in CLR
15:05 58.5 °F 44.6 °F 30.4 in ENE 9.7 mph 6.9 mph 60% 0 in CLR
15:10 58.8 °F 44.1 °F 30.4 in NE 7.6 mph 11.5 mph 58% 0 in CLR
15:15 58.8 °F 43.5 °F 30.4 in NNE 7.6 mph 8.5 mph 57% 0 in CLR
15:20 59.2 °F 44.4 °F 30.4 in NE 7.6 mph 11.5 mph 58% 0 in CLR
15:25 59.7 °F 44.4 °F 30.4 in NE 7.6 mph 10.4 mph 57% 0 in CLR
15:30 59.4 °F 44.6 °F 30.4 in NE 7.4 mph 12.7 mph 58% 0 in CLR
15:35 59.2 °F 44.4 °F 30.4 in ESE 7.4 mph 15.2 mph 58% 0 in CLR
15:40 59.2 °F 44.4 °F 30.4 in NE 7.6 mph 11.5 mph 58% 0 in CLR
15:45 59.4 °F 44.6 °F 30.4 in ENE 7.6 mph 10.4 mph 58% 0 in CLR
15:50 59.4 °F 44.6 °F 30.4 in NE 5.9 mph 11.5 mph 58% 0 in CLR
15:55 59.2 °F 44.4 °F 30.4 in NNE 5.9 mph 13.8 mph 58% 0 in CLR
16:00 59.2 °F 44.4 °F 30.4 in NE 9 mph 13 mph 58% 0 in CLR
16:05 59.5 °F 45.7 °F 30.4 in NE 8.7 mph 17.5 mph 60% 0 in CLR
16:10 59.4 °F 45.9 °F 30.4 in NE 7.6 mph 13.8 mph 61% 0 in CLR
16:15 59.2 °F 45.7 °F 30.4 in NE 7.6 mph 15 mph 61% 0 in CLR
16:20 58.8 °F 45.3 °F 30.4 in NNE 8.1 mph 9.2 mph 61% 0 in CLR
16:25 58.6 °F 45.7 °F 30.4 in ENE 8.1 mph 19.6 mph 62% 0 in CLR
16:30 58.5 °F 45.9 °F 30.4 in North 8.7 mph 10.4 mph 63% 0 in CLR
16:35 58.6 °F 46 °F 30.4 in NE 8.7 mph 12.3 mph 63% 0 in CLR
16:40 58.3 °F 45.7 °F 30.4 in North 7.4 mph 11.5 mph 63% 0 in CLR
16:45 58.1 °F 46 °F 30.4 in NE 7.4 mph 10.4 mph 64% 0 in CLR
16:50 58.3 °F 46.2 °F 30.4 in NNE 8.1 mph 17.3 mph 64% 0 in CLR
16:55 58.1 °F 45.7 °F 30.4 in North 8.1 mph 17.3 mph 63% 0 in CLR
17:00 57.9 °F 45.3 °F 30.4 in NE 9 mph 16 mph 63% 0 in CLR
17:05 57.7 °F 45.7 °F 30.4 in NNE 9.2 mph 10.4 mph 64% 0 in CLR
17:10 57.6 °F 45.5 °F 30.4 in North 9.2 mph 13.8 mph 64% 0 in CLR
17:15 57.4 °F 45.7 °F 30.4 in ENE 9.2 mph 13.8 mph 65% 0 in CLR
17:20 57.4 °F 45.7 °F 30.4 in ENE 7.6 mph 10.4 mph 65% 0 in CLR
17:25 57.6 °F 46.2 °F 30.4 in NE 7.6 mph 10.4 mph 66% 0 in CLR
17:30 57.6 °F 46.2 °F 30.4 in ENE 7.4 mph 10.4 mph 66% 0 in CLR
17:35 57.4 °F 46.6 °F 30.4 in ENE 7.4 mph 13.8 mph 67% 0 in CLR
17:40 57 °F 46.2 °F 30.4 in East 9.2 mph 9.2 mph 67% 0 in CLR
17:45 56.8 °F 46.4 °F 30.4 in NE 9.2 mph 6.9 mph 68% 0 in CLR
17:50 56.8 °F 46.4 °F 30.4 in ESE 5.9 mph 8.1 mph 68% 0 in CLR
17:55 57 °F 46.6 °F 30.4 in ENE 5.9 mph 6.9 mph 68% 0 in CLR
18:00 57 °F 46.6 °F 30.4 in ENE 5 mph 10 mph 68% 0 in CLR
18:05 57 °F 46.2 °F 30.4 in East 4.3 mph 5.8 mph 67% 0 in CLR
18:10 57 °F 46.2 °F 30.4 in East 5.2 mph 6.9 mph 67% 0 in CLR
18:15 57.2 °F 46.2 °F 30.4 in East 5.2 mph 6.9 mph 67% 0 in CLR
18:20 57 °F 46.2 °F 30.4 in NE 4.3 mph 12.7 mph 67% 0 in CLR
18:25 56.8 °F 46.4 °F 30.4 in NE 4.3 mph 9.7 mph 68% 0 in CLR
18:30 56.7 °F 46.6 °F 30.4 in East 7.6 mph 9.2 mph 69% 0 in CLR
18:35 56.5 °F 46.4 °F 30.4 in ENE 7.6 mph 10.4 mph 69% 0 in CLR
18:40 56.1 °F 46.6 °F 30.4 in NE 6.2 mph 9.2 mph 70% 0 in CLR
18:45 55.9 °F 46.8 °F 30.4 in ENE 6.2 mph 8.1 mph 71% 0 in CLR
18:50 55.8 °F 46.9 °F 30.4 in ENE 6.2 mph 8.1 mph 72% 0 in CLR
18:55 55.6 °F 46.8 °F 30.4 in NE 6.2 mph 5.9 mph 72% 0 in CLR
19:00 55.6 °F 46.8 °F 30.4 in NE 5 mph 9 mph 72% 0 in CLR
19:05 55.4 °F 46.9 °F 30.4 in NE 5.2 mph 6.9 mph 73% 0 in CLR
19:10 55.2 °F 46.8 °F 30.4 in NE 4.7 mph 6.9 mph 73% 0 in CLR
19:15 55.2 °F 46.8 °F 30.4 in NE 4.7 mph 6.9 mph 73% 0 in CLR
19:20 55 °F 46.6 °F 30.4 in NE 5.2 mph 6.9 mph 73% 0 in CLR
19:25 54.9 °F 46.8 °F 30.4 in NE 5.2 mph 5.8 mph 74% 0 in CLR
19:30 54.9 °F 46.8 °F 30.4 in NE 4.3 mph 4.6 mph 74% 0 in CLR
19:35 54.5 °F 46.4 °F 30.4 in ENE 4.3 mph 6.9 mph 74% 0 in CLR
19:40 54.3 °F 46.6 °F 30.4 in NE 4 mph 5.8 mph 75% 0 in CLR
19:45 54.1 °F 46.4 °F 30.4 in NE 4 mph 5.8 mph 75% 0 in CLR
19:50 54 °F 46.6 °F 30.4 in NNE 4.3 mph 5.8 mph 76% 0 in CLR
19:55 53.8 °F 46.4 °F 30.4 in NE 4.3 mph 5.8 mph 76% 0 in CLR
20:00 53.8 °F 46.8 °F 30.4 in NE 5 mph 6 mph 77% 0 in CLR
20:05 53.8 °F 46.8 °F 30.4 in NE 4.3 mph 5.8 mph 77% 0 in CLR
20:10 53.8 °F 46.8 °F 30.4 in NE 3.6 mph 5.8 mph 77% 0 in CLR
20:15 53.6 °F 46.6 °F 30.4 in NE 3.6 mph 4.6 mph 77% 0 in CLR
20:20 53.6 °F 46.6 °F 30.4 in NE 3.6 mph 4.6 mph 77% 0 in CLR
20:25 53.4 °F 46.4 °F 30.4 in NE 3.6 mph 2.3 mph 77% 0 in CLR
20:30 53.2 °F 46.6 °F 30.4 in NE 2.4 mph 3.6 mph 78% 0 in CLR
20:35 53.2 °F 46.6 °F 30.4 in NE 2.4 mph 4.6 mph 78% 0 in CLR
20:40 53.1 °F 46.4 °F 30.4 in NNE 2.9 mph 4.6 mph 78% 0 in CLR
20:45 53.1 °F 46.4 °F 30.4 in North 2.9 mph 2.3 mph 78% 0 in CLR
20:50 52.9 °F 46.6 °F 30.4 in North 2.4 mph 3.5 mph 79% 0 in CLR
20:55 52.9 °F 46.6 °F 30.4 in North 2.4 mph 2 mph 79% 0 in CLR
21:00 52.9 °F 46.6 °F 30.4 in North 2 mph 3 mph 79% 0 in CLR
21:05 52.9 °F 46.6 °F 30.4 in North 1.8 mph 2.3 mph 79% 0 in CLR
21:10 52.7 °F 46.4 °F 30.4 in North 1.4 mph 2.3 mph 79% 0 in CLR
21:15 52.9 °F 46.6 °F 30.4 in North 1.4 mph 1.8 mph 79% 0 in CLR
21:20 52.7 °F 46.4 °F 30.4 in North 1.4 mph 3.5 mph 79% 0 in CLR
21:25 52.9 °F 46.6 °F 30.4 in North 1.4 mph 2.3 mph 79% 0 in CLR
21:30 52.9 °F 46.6 °F 30.4 in NNE 1.4 mph 4.6 mph 79% 0 in CLR
21:35 52.7 °F 46.4 °F 30.4 in NNE 1.4 mph 4.6 mph 79% 0 in CLR
21:40 52.7 °F 46.4 °F 30.4 in ENE 2.4 mph 4.6 mph 79% 0 in CLR
21:45 52.7 °F 46.4 °F 30.4 in NE 2.4 mph 2.4 mph 79% 0 in CLR
21:50 52.7 °F 46.4 °F 30.4 in NE 2 mph   79% 0 in CLR
21:55 52.7 °F 46.4 °F 30.4 in NE 2 mph   79% 0 in CLR
22:00 52.7 °F 46.4 °F 30.4 in Calm   5 mph 79% 0 in CLR
22:05 52.7 °F 46.4 °F 30.4 in Calm   2.9 mph 79% 0 in CLR
22:10 52.7 °F 46.4 °F 30.4 in ENE 2 mph 2.3 mph 79% 0 in CLR
22:15 52.5 °F 46.2 °F 30.4 in ENE 2 mph 4.6 mph 79% 0 in CLR
22:20 52.5 °F 46.2 °F 30.4 in ENE 2 mph 3.5 mph 79% 0 in CLR
22:25 52.5 °F 46.2 °F 30.4 in ENE 2 mph 3.6 mph 79% 0 in CLR
22:30 52.5 °F 46.2 °F 30.4 in NE 2 mph 2.9 mph 79% 0 in CLR
22:35 52.5 °F 46.2 °F 30.4 in NE 2 mph 3.5 mph 79% 0 in CLR
22:40 52.5 °F 46.2 °F 30.4 in NE 2 mph 3.5 mph 79% 0 in CLR
22:45 52.5 °F 46.2 °F 30.4 in NE 2 mph 2.4 mph 79% 0 in CLR
22:50 52.5 °F 46.2 °F 30.4 in NE 1.8 mph   79% 0 in CLR
22:55 52.5 °F 46.2 °F 30.4 in NE 1.8 mph   79% 0 in CLR
23:00 52.5 °F 46.2 °F 30.4 in Calm   2 mph 79% 0 in CLR
23:05 52.5 °F 46.2 °F 30.4 in Calm   4.6 mph 79% 0 in CLR
23:10 52.5 °F 46.2 °F 30.4 in East 1.8 mph   79% 0 in CLR
23:15 52.5 °F 46.2 °F 30.4 in East 1.8 mph   79% 0 in CLR
23:20 52.5 °F 46.2 °F 30.4 in Calm     79% 0 in CLR
23:25 52.5 °F 46.2 °F 30.4 in Calm     79% 0 in CLR
23:30 52.5 °F 46.2 °F 30.4 in Calm     79% 0 in CLR
23:35 52.5 °F 46.2 °F 30.4 in Calm     79% 0 in CLR
23:40 52.5 °F 46.2 °F 30.4 in Calm   2.3 mph 79% 0 in CLR
23:45 52.5 °F 46.2 °F 30.4 in Calm     79% 0 in CLR
23:50 52.5 °F 46.2 °F 30.4 in Calm     79% 0 in CLR
23:55 52.5 °F 46.2 °F 30.4 in Calm     79% 0 in CLR
Murcia-Puente Tocinos, España
Compliments of Weather Underground - 2.75 mb

La estación de MeteoMurcia.com, publica sus datos en los siguientes proyectos:

Weather Underground PWS IMURCIAP2 Meteoclimatic www.awekas.at

W3Counter
Web Analytics